Regional Weather Roundup
Issued by NWS

Home | Current Version | Previous Version | Graphics & Text | Print | Product List | Glossary Off
Versions: 1 2 3 4 5 6 7 8 9 10 11 12 13 14 15 16 17 18 19 20 21 22 23 24 25 26 27 28 29 30 31 32 33 34 35 36 37 38 39 40 41 42 43 44 45 46 47 48 49 50

000
ASUS45 KBOU 301607
RWRCO

WEATHER ROUNDUP FOR COLORADO
NATIONAL WEATHER SERVICE DENVER/BOULDER CO
1000 AM MDT SUN AUG 30 2015

NOTE: "FAIR" INDICATES FEW OR NO CLOUDS BELOW 12000 FEET WITH NO
SIGNIFICANT WEATHER AND/OR OBSTRUCTIONS TO VISIBILITY.

COZ001>005-013-030-031-301700-
...NORTHWEST COLORADO...

CITY           SKY/WX    TMP DP  RH WIND       PRES   REMARKS
CRAIG          MOSUNNY   76  44  32 NE6       30.19F
HAYDEN         NOT AVBL
MEEKER         MOSUNNY   70  41  34 CALM      30.21F
MOUNT WERNER   NOT AVBL
STEAMBOAT SPGS SUNNY     65  43  45 CALM      30.25F
WALDEN         SUNNY     70  37  30 S7        30.34S
$$

COZ006>008-011-301700-
...WEST CENTRAL VALLEYS...

CITY           SKY/WX    TMP DP  RH WIND       PRES   REMARKS
GRAND JUNCTION MOSUNNY   77  42  28 SE9       30.12S
MONTROSE       SUNNY     73  46  38 N8        30.22S
EAGLE          MOSUNNY   63  39  42 CALM      30.32F
RIFLE          SUNNY     70  43  37 VRB3      30.19F
DELTA          SUNNY     73  45  36 E5        30.18F
NUCLA          SUNNY     77  41  27 CALM      30.27S
$$

COZ017>023-064>068-301700-
...SOUTHWEST COLORADO...

CITY           SKY/WX    TMP DP  RH WIND       PRES   REMARKS
DURANGO        MOSUNNY   71  44  37 E6        30.33R
CORTEZ         MOSUNNY   72  50  45 CALM      30.25R
PAGOSA SPRINGS MOSUNNY   68  42  38 CALM      30.41S
TELLURIDE      MOSUNNY   68  42  39 CALM      30.48S
WOLF CREEK PAS SUNNY     52  41  66 S12       30.71S
$$

COZ009-010-012-014-032>034-037-058>063-301700-
...CENTRAL COLORADO...

CITY           SKY/WX    TMP DP  RH WIND       PRES   REMARKS
ASPEN          SUNNY     70  40  33 CALM      30.34F
BUENA VISTA    SUNNY     65  40  39 SE3       30.38F
COPPER MTN     SUNNY     59  30  33 W18       30.67S
BERTHOUD PASS  FAIR      50  36  57 NW23G38   30.70R
COTTONWOOD PAS SUNNY     63  37  39 CALM      30.52R
GUNNISON       SUNNY     59  37  44 CALM      30.42F
KREMMLING      MOSUNNY   59  37  44 CALM      30.36F
LEADVILLE      SUNNY     64  32  30 N5        30.50F
MONARCH PASS   SUNNY     52  36  54 SW13G21   30.78R
SALIDA         SUNNY     70  42  36 N6        30.42F
SUNLIGHT       SUNNY     61  41  48 CALM      30.59R
WILKERSON PASS SUNNY     55  32  41 W5        30.64R
$$

COZ069>075-301700-
...SAN LUIS VALLEY/SANGRE DE CRISTO MOUNTAINS...

CITY           SKY/WX    TMP DP  RH WIND       PRES   REMARKS
ALAMOSA        SUNNY     65  45  48 CALM      30.39S
LA VETA PASS   MOSUNNY   61  41  48 SW6       30.54R
SAGUACHE       SUNNY     64  43  45 S3        30.42S
$$

COZ035-036-038>040-301700-
...NORTHERN COLORADO FRONT RANGE...

CITY           SKY/WX    TMP DP  RH WIND       PRES   REMARKS
DENVER INTL AP PTSUNNY   83  42  23 SW10      30.12S
DMNS CITY PARK   N/A     81  45  27 SE10      30.11S
AURORA         MOSUNNY   83  45  26 SW10      30.14S
FRONT RANGE AP PTSUNNY   82  39  21 SW7       30.14S
ERIE MUNI ARPT SUNNY     79  43  28 SE3       30.10S
BOULDER MUN AP SUNNY     77  46  33 SE3       30.11R
CENTENNIAL     MOSUNNY   81  42  25 SW10      30.16S
BROOMFIELD     MOSUNNY   77  45  31 NE3       30.14S
FORT COLLINS   MOSUNNY   73  45  35 S7        30.10S
LONGMONT       MOSUNNY   79  46  31 CALM      30.10F
$$

COZ041-046-047-076>085-087-088-301700-
...PIKES PEAK/PALMER DIVIDE AND SOUTHERN FOOTHILLS...

CITY           SKY/WX    TMP DP  RH WIND       PRES   REMARKS
COLO. SPRINGS  MOSUNNY   75  41  29 SW6       30.22R
A. F. ACADEMY  SUNNY     79  41  25 VRB2      30.22S
ELLICOTT       SUNNY    N/A N/A N/A SW5       30.20R
FALCON         MOSUNNY   79  37  22 MISG      30.26S
FORT CARSON    SUNNY     74  47  38 SE2       30.19R
LIMON          SUNNY     73  50  44 SE8       30.16S
MONUMENT HILL  SUNNY     81  32  17 W12       30.26S
TRINIDAD       SUNNY     80  48  32 CALM      30.20S
$$

COZ042>045-048>051-090-091-301700-
...NORTHEAST COLORADO...

CITY           SKY/WX    TMP DP  RH WIND       PRES   REMARKS
GREELEY ARPT   MOSUNNY   72  48  43 SW3       30.09S
AKRON          SUNNY     83  48  29 S20G26    30.08S
BURLINGTON     SUNNY     80  50  34 S17G26    30.11S
WRAY           SUNNY     85  47  26 S22G32    30.04F
STERLING       SUNNY     79  50  36 SW15      30.02S
HOLYOKE        SUNNY     81  50  34 S13G24    30.04R
FORT MORGAN    SUNNY     76  44  32 SW7       30.07S
$$

COZ086-089-092>099-301700-
...SOUTHEAST COLORADO...

CITY           SKY/WX    TMP DP  RH WIND       PRES   REMARKS
PUEBLO         SUNNY     74  46  36 CALM      30.12S
LA JUNTA       SUNNY     79  50  36 W5        30.10S
LAMAR          NOT AVBL
SPRINGFIELD    NOT AVBL
$$



USA.gov is the U.S. government's official web portal to all federal, state and local government web resources and services.